This demonstration page uses our WeatherBlox Daily Observations layout. Learn more.

39.01783, -85.05884

Hourly Observations for September 12, 2019

Temp ( °F °C ) Dew Point ( °F °C ) Humidity (%) Winds ( mph kmh ) Pressure ( in mb ) Visibility ( mi km ) Precip ( " mm )
12:52 am 00:52 Clear 74 23.3 67 19.4 79 79 S 3 6 30.09 1019 10 16.09344 0 0
1:52 am 01:52 Clear 72 22.2 67 19.4 84 84 SSW 5 7 30.06 1018 9 14.484096 0 0
2:52 am 02:52 Mostly Clear 74 23.3 66 18.9 76 76 Calm 30.06 1018 10 16.09344 0 0
3:52 am 03:52 Clear 71 21.7 67 19.4 87 87 Calm 30.06 1018 9 14.484096 0 0
4:52 am 04:52 Clear 72 22.2 65 18.3 79 79 Calm 30.09 1019 10 16.09344 0 0
5:52 am 05:52 Clear 72 22.2 65 18.3 79 79 SSW 3 6 30.09 1019 10 16.09344 0 0
6:52 am 06:52 Partly Cloudy 69 20.6 65 18.3 87 87 SW 3 6 30.12 1020 8 12.874752 0 0
7:52 am 07:52 Mostly Sunny 72 22.2 66 18.9 82 82 W 8 13 30.12 1020 8 12.874752 0 0
8:52 am 08:52 Sunny 77 25 67 19.4 71 71 WSW 7 11 30.12 1020 9 14.484096 0 0
9:52 am 09:52 Sunny 82 27.8 69 20.6 65 65 W 8 13 30.12 1020 10 16.09344 0 0
10:52 am 10:52 Sunny 85 29.4 69 20.6 59 59 W 9 15 30.12 1020 10 16.09344 0 0
11:52 am 11:52 Mostly Sunny 87 30.6 68 20 53 53 WSW 8 13 30.12 1020 10 16.09344 0 0
12:52 pm 12:52 Partly Cloudy 89 31.7 68 20 50 50 W 9 15 30.12 1020 10 16.09344 0 0
1:52 pm 13:52 Partly Cloudy 91 32.8 67 19.4 45 45 WNW 12 19 30.09 1019 10 16.09344 0 0
2:52 pm 14:52 Partly Cloudy 90 32.2 66 18.9 45 45 W 12 19 30.09 1019 10 16.09344 0 0
4:52 pm 16:52 Mostly Sunny 93 33.9 63 17.2 37 37 WSW 8 13 30.06 1018 10 16.09344 0 0
5:52 pm 17:52 Mostly Sunny 91 32.8 64 17.8 41 41 SSW 5 7 30.06 1018 10 16.09344 0 0
6:52 pm 18:52 Mostly Sunny 89 31.7 64 17.8 43 43 W 5 7 30.06 1018 10 16.09344 0 0
7:52 pm 19:52 Mostly Sunny 86 30 64 17.8 48 48 Calm 30.06 1018 10 16.09344 0 0
8:52 pm 20:52 Mostly Clear 81 27.2 64 17.8 57 57 Calm 30.06 1018 10 16.09344 0 0
9:52 pm 21:52 Mostly Clear 79 26.1 66 18.9 65 65 Calm 30.09 1019 10 16.09344 0 0
10:52 pm 22:52 Mostly Clear 77 25 67 19.4 71 71 SSE 3 6 30.09 1019 9 14.484096 0 0
11:52 pm 23:52 Clear 76 24.4 66 18.9 72 72 Calm 30.09 1019 10 16.09344 0 0

Powered by AerisWeather